Probability
0 0 0 0 0 0 0 0 0 0 0 0 0 0 0 0 0 0 0 0 0 0 0 0 0 0 0 0 0 0 0 0 0 0 0 0 0 0 0 0 0 0 0
0 0 0 0 0 0 0 0 0 0 0 0 0 0 0 0 0 0 0 0 0 0 0 0 0 0 0 0 0 0 0 0 0 0 0 0 0 0 0 0 0 0 0
0 0 0 0 0 0 0 0 0 0 0 0 0 0 0 0 0 0 0 0 0 0 0 0 0 0 0 0 0 0 0 0 0 0 0 0 0 0 0 0 0 0 0
0 0 0 0 0 0 0 0 0 0 0 0 0 0 0 0 0 0 0 0 0 0 0 0 0 0 0 0 0 0 0 0 0 0 0 0 0 0 0 0 0 0 0
0 0 0 0 0 0 0 0 0 0 0 0 0 0 0 0 0 0 0 0 0 0 0 0 0 0 0 0 0 0 0 0 0 0 0 0 0 0 0 0 0 0 0
0 0 0 3 0 0 0 0 0 0 0 0 0 0 0 0 0 0 0 0 0 0 0 0 0 0 0 0 0 0 0 0 0 0 0 0 0 0 0 0 0 0 0
0 0 3 3 0 0 0 0 0 0 0 0 0 0 0 0 0 0 0 0 0 0 0 0 0 0 0 0 0 0 0 0 0 0 0 0 0 0 0 0 0 0 0
0 0 0 0 0 0 0 0 0 0 0 0 0 0 0 0 0 0 0 0 0 0 0 0 0 0 0 0 0 0 0 0 0 0 0 0 0 0 0 0 0 0 0
0 0 0 0 0 0 0 0 0 0 0 0 0 0 0 0 0 0 0 0 0 0 0 0 0 0 0 0 0 0 0 0 0 0 0 0 0 0 0 0 0 0 0
0 0 0 0 0 0 0 0 0 0 0 0 0 0 0 0 0 0 0 0 0 0 0 0 0 0 0 0 0 0 0 0 0 0 0 0 0 0 0 0 0 0 0
0 0 0 0 0 0 0 0 0 0 0 0 0 0 0 0 0 0 0 0 0 0 0 0 0 0 0 0 0 0 0 0 0 0 0 0 0 0 0 0 0 0 0
0 0 0 0 0 0 0 0 0 0 0 0 0 0 0 0 0 0 0 0 0 0 0 0 0 0 0 0 0 0 0 0 0 0 0 0 0 0 0 0 0 0 0
0 0 0 0 0 0 0 0 0 0 0 0 0 0 0 0 0 0 0 0 0 0 0 0 0 0 0 0 0 0 0 0 0 0 0 0 0 0 0 0 0 0 0
0 0 0 0 0 0 0 0 0 0 0 0 0 0 0 0 0 0 0 0 0 0 0 0 0 0 0 0 0 0 0 0 0 0 0 0 0 0 0 0 0 0 0
0 0 0 0 0 0 0 0 0 0 0 0 0 0 0 0 0 0 0 0 0 0 0 0 0 0 0 0 0 0 0 0 0 0 0 0 0 0 0 0 0 0 0
0 0 0 0 0 0 0 0 0 0 0 0 0 0 0 0 0 0 0 0 0 0 0 0 0 0 0 0 0 0 0 0 0 0 0 0 0 0 0 0 0 0 0
0 0 0 0 0 0 0 0 0 0 0 0 0 0 0 0 0 0 0 0 0 0 0 0 0 0 0 0 0 0 0 0 0 0 0 0 0 0 0 0 0 0 0
0 0 0 0 0 0 0 0 0 0 0 0 0 0 0 0 0 0 0 0 0 0 0 0 0 0 0 0 0 0 0 0 0 0 0 0 0 0 0 0 0 0 0
0 0 0 0 0 0 0 0 0 0 0 0 0 0 0 0 0 0 0 0 0 0 0 0 0 0 0 0 0 0 0 0 0 0 0 0 0 0 0 0 0 0 0
0 0 0 0 0 0 0 0 0 0 0 0 0 0 0 0 0 0 0 0 0 0 0 0 0 0 0 0 0 0 0 0 0 0 0 0 0 0 0 0 0 0 0
0 0 0 0 0 0 0 0 0 0 0 0 0 0 0 0 0 0 0 0 0 0 0 0 0 0 0 0 0 0 0 0 0 0 0 0 0 0 0 0 0 0 0
0 0 0 0 0 0 0 0 0 0 0 0 0 0 0 0 0 0 0 0 0 0 0 0 0 0 0 0 0 0 0 0 0 0 0 0 0 0 0 0 0 0 0
0 0 0 0 0 0 0 0 0 0 0 0 0 0 0 0 0 0 0 0 0 0 0 0 0 0 0 0 0 0 0 0 0 0 0 0 0 0 0 0 0 0 0
0 0 0 0 0 0 0 0 0 0 0 0 0 0 0 0 0 0 0 0 0 0 0 0 0 0 0 0 0 0 0 0 0 0 0 0 0 0 0 0 0 0 0
0 0 0 0 0 0 0 0 0 0 0 0 0 0 0 0 0 0 0 0 0 0 0 0 0 0 0 0 0 0 0 0 0 0 0 0 0 0 0 0 0 0 0
0 0 0 0 0 0 0 0 0 0 0 0 0 0 0 0 0 0 0 0 0 0 0 0 0 0 0 0 0 0 0 0 0 0 0 0 0 0 0 0 0 0 0
Height
5695 5695 5694 5694 5693 5692 5691 5690 5689 5688 5687 5687 5688 5689 5691 5693 5695 5696 5698 5699 5700 5702 5704 5705 5706 5707 5708 5709 5710 5710 5710 5711 5710 5711 5711 5712 5712 5712 5712 5712 5711 5711 5711
5687 5686 5686 5685 5684 5683 5682 5680 5679 5678 5677 5677 5677 5678 5681 5683 5685 5686 5687 5688 5690 5691 5692 5694 5695 5696 5697 5698 5699 5700 5700 5700 5699 5700 5700 5701 5703 5702 5702 5701 5701 5701 5701
5678 5678 5677 5677 5675 5674 5673 5671 5670 5669 5668 5667 5668 5669 5671 5673 5674 5676 5677 5678 5679 5680 5681 5683 5684 5685 5686 5688 5688 5689 5689 5689 5689 5688 5689 5690 5692 5693 5692 5691 5691 5690 5690
5670 5670 5669 5668 5667 5665 5664 5662 5661 5660 5659 5659 5659 5660 5662 5664 5665 5666 5668 5668 5669 5670 5671 5672 5673 5675 5676 5677 5678 5678 5678 5678 5678 5678 5678 5679 5680 5681 5682 5682 5681 5680 5680
5662 5662 5661 5660 5658 5657 5655 5654 5652 5651 5650 5650 5651 5652 5653 5654 5655 5656 5658 5658 5658 5659 5661 5661 5662 5664 5665 5666 5667 5667 5668 5668 5668 5668 5668 5668 5668 5669 5670 5672 5672 5671 5670
5654 5653 5652 5651 5650 5648 5647 5646 5644 5643 5642 5642 5642 5643 5644 5645 5646 5647 5648 5648 5649 5650 5650 5651 5652 5653 5654 5655 5656 5657 5657 5657 5657 5657 5657 5657 5658 5658 5659 5660 5661 5662 5661
5646 5645 5644 5643 5642 5640 5639 5638 5636 5635 5634 5634 5634 5635 5636 5636 5637 5638 5639 5639 5640 5640 5640 5640 5641 5642 5644 5645 5646 5646 5647 5647 5647 5647 5647 5647 5647 5648 5648 5649 5651 5652 5652
5639 5638 5636 5635 5634 5633 5631 5630 5629 5628 5626 5626 5626 5627 5627 5627 5628 5629 5629 5629 5629 5630 5630 5630 5631 5632 5633 5635 5635 5636 5636 5636 5636 5637 5637 5637 5637 5637 5638 5639 5639 5641 5642
5632 5631 5629 5628 5626 5625 5624 5623 5621 5620 5619 5618 5618 5618 5618 5619 5619 5619 5619 5619 5619 5619 5619 5620 5621 5622 5623 5624 5625 5626 5626 5626 5626 5627 5627 5627 5627 5627 5627 5627 5628 5629 5630
5625 5624 5622 5621 5619 5618 5617 5615 5614 5613 5612 5611 5610 5610 5610 5610 5610 5610 5610 5610 5610 5610 5610 5611 5612 5613 5613 5614 5615 5616 5616 5617 5617 5617 5617 5617 5617 5617 5617 5617 5617 5618 5618
5618 5617 5615 5614 5612 5610 5609 5608 5607 5606 5605 5604 5603 5602 5602 5601 5601 5601 5600 5600 5600 5601 5601 5602 5603 5603 5604 5605 5606 5606 5607 5607 5608 5608 5608 5608 5607 5608 5608 5608 5608 5608 5608
5611 5610 5608 5607 5605 5603 5602 5600 5600 5599 5598 5596 5595 5594 5593 5592 5592 5591 5591 5591 5592 5592 5593 5593 5593 5594 5595 5596 5596 5597 5597 5598 5598 5598 5598 5598 5598 5599 5599 5599 5599 5599 5598
5605 5603 5601 5600 5598 5596 5595 5593 5592 5591 5590 5588 5587 5586 5584 5584 5583 5583 5583 5583 5583 5583 5584 5584 5584 5585 5586 5586 5587 5587 5588 5588 5589 5589 5589 5589 5589 5590 5590 5590 5590 5590 5589
5599 5597 5595 5593 5591 5589 5587 5586 5584 5583 5581 5580 5578 5577 5576 5575 5574 5574 5574 5574 5574 5575 5575 5575 5575 5576 5576 5576 5577 5577 5578 5578 5579 5579 5579 5579 5580 5581 5581 5581 5581 5581 5581
5592 5590 5588 5586 5584 5582 5580 5578 5577 5575 5573 5571 5570 5569 5567 5566 5565 5565 5565 5566 5566 5566 5566 5566 5566 5566 5566 5567 5567 5567 5568 5569 5569 5569 5569 5570 5571 5572 5572 5573 5573 5572 5572
5586 5584 5582 5579 5577 5575 5573 5571 5569 5567 5565 5563 5562 5560 5559 5558 5557 5557 5557 5557 5557 5558 5558 5558 5558 5557 5557 5557 5557 5557 5558 5559 5559 5560 5560 5560 5561 5562 5563 5563 5563 5563 5563
5579 5577 5575 5573 5570 5568 5565 5563 5561 5559 5557 5556 5554 5552 5551 5550 5549 5548 5548 5549 5549 5549 5549 5549 5549 5548 5548 5547 5547 5547 5547 5548 5549 5549 5550 5551 5552 5553 5553 5554 5554 5554 5554
5573 5571 5568 5566 5563 5560 5558 5556 5554 5552 5550 5548 5546 5544 5542 5541 5541 5540 5540 5540 5540 5540 5540 5540 5540 5539 5539 5538 5537 5537 5537 5538 5539 5539 5540 5541 5543 5544 5545 5545 5545 5546 5546
5566 5564 5561 5559 5556 5554 5551 5549 5547 5545 5543 5541 5539 5537 5535 5534 5533 5533 5532 5532 5532 5532 5532 5531 5530 5530 5529 5529 5528 5528 5527 5528 5529 5529 5530 5532 5533 5535 5536 5536 5537 5538 5538
5560 5558 5555 5553 5550 5548 5545 5543 5541 5538 5536 5534 5532 5530 5528 5527 5526 5525 5524 5524 5524 5524 5523 5523 5522 5521 5521 5520 5519 5518 5518 5519 5519 5520 5521 5522 5524 5525 5526 5528 5529 5529 5530
5554 5552 5549 5547 5544 5541 5539 5537 5534 5532 5529 5527 5525 5523 5521 5520 5519 5518 5517 5517 5516 5515 5515 5514 5514 5513 5512 5511 5510 5509 5509 5509 5510 5510 5511 5513 5515 5516 5518 5519 5520 5521 5522
5548 5545 5543 5541 5538 5535 5533 5530 5528 5525 5523 5521 5518 5516 5514 5513 5512 5511 5510 5509 5508 5507 5507 5506 5505 5504 5503 5502 5502 5501 5501 5501 5501 5502 5503 5504 5506 5507 5509 5510 5512 5513 5514
5541 5539 5537 5535 5533 5529 5527 5524 5521 5519 5516 5514 5512 5510 5508 5507 5505 5504 5503 5502 5501 5500 5500 5499 5498 5497 5496 5495 5494 5493 5492 5493 5493 5494 5494 5495 5497 5499 5500 5502 5503 5504 5505
5536 5534 5531 5529 5527 5523 5520 5517 5514 5512 5509 5507 5505 5503 5502 5500 5499 5498 5497 5496 5495 5494 5493 5492 5491 5490 5489 5488 5487 5486 5486 5486 5486 5486 5487 5488 5489 5491 5493 5494 5495 5497 5498
5530 5528 5526 5523 5520 5517 5514 5511 5508 5505 5503 5501 5499 5497 5496 5494 5493 5492 5491 5490 5489 5488 5487 5485 5485 5484 5483 5481 5480 5480 5480 5479 5480 5480 5480 5481 5482 5484 5485 5487 5488 5490 5491
5524 5522 5520 5517 5514 5511 5508 5505 5502 5500 5498 5495 5493 5491 5490 5488 5487 5486 5485 5483 5482 5481 5480 5479 5478 5477 5476 5475 5474 5474 5474 5474 5474 5474 5475 5475 5476 5478 5479 5480 5482 5483 5484
Wind_Speed
36 36 36 36 36 36 37 37 38 39 40 41 41 40 40 40 40 41 42 42 41 41 43 43 42 40 40 40 40 40 41 41 42 42 42 41 41 40 41 40 40 40 40
34 35 35 36 36 36 37 38 39 39 40 40 41 41 40 40 39 40 40 41 42 42 42 41 41 41 41 41 41 41 41 41 41 41 41 40 40 40 41 41 40 40 39
34 34 35 36 36 37 37 38 39 38 38 38 39 40 39 39 38 38 40 40 41 41 41 40 41 41 41 41 41 40 41 40 41 41 42 41 40 39 40 41 40 39 39
33 34 34 35 37 37 37 37 38 37 38 38 38 38 37 38 38 38 39 39 40 40 40 40 41 41 41 40 41 41 41 39 40 41 41 41 40 40 40 40 39 38 38
33 33 34 34 35 36 36 36 36 36 36 36 36 37 37 37 37 37 37 38 38 38 40 40 40 41 41 41 40 40 40 40 40 40 40 40 40 40 40 39 39 39 39
32 33 33 33 33 34 34 34 34 33 34 35 35 36 37 36 36 36 37 37 38 39 40 40 40 40 42 42 40 41 40 40 40 39 39 39 39 39 39 39 39 39 39
30 31 32 32 32 33 33 33 33 32 33 33 34 35 35 35 36 36 36 37 39 40 40 40 39 39 40 41 41 41 40 40 40 39 39 39 38 38 39 39 38 39 39
28 29 30 30 30 31 32 32 32 32 32 32 32 33 34 34 35 36 36 37 38 39 39 40 40 39 40 40 40 41 41 40 39 39 39 38 38 37 37 38 38 38 39
26 27 28 28 29 29 30 31 31 31 30 31 30 31 32 33 35 36 35 36 37 36 37 38 38 39 40 39 39 39 40 40 39 38 38 37 37 37 37 37 38 38 38
25 26 26 27 28 28 29 29 29 29 28 29 30 30 31 33 35 35 35 35 35 35 36 37 38 38 38 38 38 37 37 37 37 37 37 37 36 36 36 37 37 38 38
25 26 26 26 26 27 28 29 28 28 28 29 29 30 31 32 33 34 34 34 34 34 34 35 36 36 36 36 36 36 35 36 37 37 36 36 35 35 34 35 35 36 37
25 25 26 26 26 27 27 28 29 29 29 30 30 30 31 31 32 33 33 32 33 33 33 35 35 35 35 35 36 36 35 35 36 37 36 36 36 35 34 34 34 35 35
25 25 26 26 26 26 27 28 29 29 29 29 29 30 30 31 31 32 32 31 31 31 32 33 34 34 34 35 35 35 35 35 35 35 36 36 35 35 34 34 33 34 34
24 24 25 26 26 26 26 27 28 29 28 28 29 29 30 31 31 31 31 30 31 31 31 32 33 34 35 35 35 35 34 34 34 34 34 34 34 34 34 33 33 33 33
24 24 25 26 26 26 26 27 28 28 28 27 28 29 29 29 30 31 31 32 32 31 32 32 33 34 35 36 35 34 34 34 33 34 34 33 34 33 33 33 32 33 32
24 25 25 26 27 27 27 28 28 28 28 28 28 28 29 29 29 30 31 31 31 32 32 33 33 33 33 33 34 34 33 34 34 34 33 33 33 32 32 32 32 32 32
24 25 25 26 27 27 27 28 28 28 28 29 29 29 29 29 28 28 29 29 30 30 31 31 31 31 31 32 33 33 33 34 34 33 33 32 31 31 31 31 32 32 32
25 25 25 25 26 26 27 27 27 27 28 28 29 29 29 28 28 28 28 28 28 28 29 30 31 30 30 31 32 32 33 33 32 32 32 31 31 31 31 31 31 31 31
24 24 24 25 26 25 25 25 26 27 26 27 27 28 28 27 27 27 27 27 26 27 28 28 28 29 29 30 30 31 32 33 32 32 31 31 31 30 31 31 31 30 29
24 24 24 25 25 25 24 24 24 25 25 26 26 26 26 25 25 25 25 24 25 25 26 26 27 28 28 29 30 30 31 31 31 31 32 31 31 30 30 31 30 29 29
24 24 24 24 24 24 24 24 25 24 24 24 25 25 24 23 22 23 23 23 24 26 25 26 27 27 28 28 29 29 29 29 30 29 30 30 29 29 29 30 29 29 29
24 24 23 23 24 24 24 24 25 25 24 24 24 22 21 20 20 21 22 23 23 24 25 25 26 26 27 27 27 27 27 27 28 28 28 28 28 28 28 29 29 28 28
23 23 23 23 23 25 25 25 25 25 25 24 23 20 20 20 20 21 21 22 22 23 23 24 24 24 25 24 24 25 25 25 25 25 26 26 27 27 27 28 28 27 27
23 23 23 23 24 26 26 26 25 25 24 23 22 20 20 20 20 21 21 22 23 23 23 24 23 23 23 23 23 23 22 22 23 24 24 24 25 26 27 27 27 27 26
23 23 23 24 25 26 26 25 24 23 22 22 21 20 20 20 20 21 22 22 23 23 23 23 22 22 22 22 22 21 21 20 21 22 22 23 25 25 25 26 25 25 25
23 24 24 24 25 25 24 23 22 21 21 21 21 21 21 20 20 21 21 22 22 23 22 22 22 22 22 21 21 21 21 21 20 20 21 22 23 24 24 25 24 24 24
Wind_Direction
269 269 271 272 273 273 274 273 271 271 271 267 264 264 262 263 263 263 263 262 261 260 261 261 262 263 264 265 267 268 270 270 270 269 269 268 268 269 271 271 273 273 273
269 270 271 273 273 275 276 274 273 273 272 268 264 263 263 263 264 264 263 263 261 261 260 260 261 263 264 265 266 268 269 270 269 268 268 267 267 269 270 271 272 273 273
268 270 272 273 274 275 275 275 275 274 272 268 265 265 265 264 265 266 265 265 264 263 261 261 262 263 264 265 266 268 270 269 269 269 268 268 267 268 270 271 271 271 273
270 272 274 274 276 276 276 275 276 275 271 268 266 265 266 265 264 266 265 265 264 262 262 263 263 263 264 264 265 266 268 270 269 269 270 270 269 269 269 270 270 271 272
270 272 274 276 277 277 276 276 276 275 270 268 267 267 266 265 265 265 265 266 264 264 265 264 264 262 262 264 265 266 268 269 270 270 270 270 271 271 270 269 269 270 271
270 272 274 276 277 278 276 275 278 276 273 271 269 267 266 266 264 264 265 264 264 266 267 265 264 263 262 262 264 266 267 269 268 269 270 271 271 270 269 269 268 268 270
274 275 277 278 278 278 277 276 278 277 275 272 270 267 265 265 265 264 265 267 266 268 267 266 264 263 262 262 264 266 268 268 267 269 273 272 270 269 269 268 268 269 270
278 279 280 280 280 279 278 278 279 277 274 272 270 269 267 265 265 266 267 268 269 268 268 266 264 262 263 264 266 267 266 267 268 272 274 273 270 269 269 268 269 269 270
282 283 282 281 281 280 278 279 280 279 275 271 270 269 268 266 266 268 269 271 270 268 267 266 264 263 264 264 266 268 266 266 269 272 273 272 272 270 270 269 269 270 271
284 285 284 282 282 282 280 279 280 278 274 272 271 271 270 268 267 268 270 270 268 267 266 265 264 264 263 264 267 268 267 268 269 270 271 271 271 270 270 270 270 271 272
286 286 286 284 283 283 282 278 278 277 275 273 272 272 272 269 267 267 269 268 268 267 265 264 265 265 264 266 268 268 268 269 269 269 270 271 270 270 271 270 271 272 273
285 285 285 285 284 284 282 279 278 278 276 273 272 272 273 272 270 269 267 267 266 266 265 266 265 265 266 268 269 268 268 268 269 269 270 270 269 268 269 271 273 274 275
285 284 284 285 284 283 281 280 279 281 279 275 273 273 273 273 271 269 267 265 266 267 267 268 266 266 267 268 269 268 268 268 270 270 271 271 270 269 270 271 273 274 276
287 286 287 289 287 284 284 282 281 283 282 279 275 275 274 273 272 269 266 265 266 267 269 270 268 267 267 269 269 269 268 269 270 271 271 270 270 270 270 272 273 274 274
290 289 289 288 289 287 286 284 282 283 283 282 280 277 275 273 272 270 267 265 267 269 269 269 270 269 269 270 269 269 268 269 270 271 271 269 270 271 272 272 273 272 272
293 292 291 290 290 289 287 286 284 283 284 285 284 281 278 276 274 271 268 268 268 268 268 268 270 271 270 269 269 268 268 268 269 270 270 269 268 270 273 273 272 271 271
294 295 294 293 292 292 290 286 285 285 286 286 285 283 280 278 275 272 270 270 270 269 269 269 271 273 272 271 270 268 268 267 267 268 268 267 266 270 271 272 272 271 270
294 295 297 296 295 294 292 289 288 286 286 287 286 284 281 280 277 273 272 272 269 270 272 273 274 275 274 272 271 269 267 266 266 267 267 266 267 269 272 272 272 271 270
295 297 299 298 297 297 295 293 291 290 288 289 288 285 281 279 278 277 275 272 273 274 274 274 276 276 274 272 272 272 269 266 265 265 263 263 265 269 270 271 272 271 269
296 296 298 299 300 299 296 294 293 293 292 290 289 287 284 281 278 277 277 277 277 276 276 276 277 278 276 275 275 274 271 268 266 263 262 262 265 268 269 270 270 270 270
294 295 297 299 301 301 298 296 296 295 294 294 292 290 286 282 279 277 279 280 278 277 276 278 279 280 279 277 276 276 274 271 267 264 262 263 264 265 267 267 269 270 269
293 294 296 298 300 300 299 299 298 296 295 295 293 290 286 282 280 281 282 282 281 278 277 279 281 281 280 279 277 275 274 272 268 265 263 263 262 262 264 266 268 269 269
293 292 294 297 301 301 300 300 299 296 294 294 293 288 286 284 282 282 283 282 281 280 278 279 281 282 282 280 278 277 275 272 268 265 264 262 262 262 263 264 266 268 268
294 294 294 298 302 303 302 302 300 298 294 292 291 289 287 285 283 283 283 283 283 282 282 282 281 281 282 281 279 277 273 270 268 266 266 265 263 262 263 264 265 265 265
294 295 294 296 301 303 304 302 301 300 297 293 291 291 291 287 282 282 283 284 284 283 283 284 284 283 284 282 282 278 272 269 270 271 268 266 265 263 264 263 263 265 264
291 293 294 296 298 301 303 303 303 303 302 298 294 290 289 287 285 285 285 285 285 285 285 286 286 286 285 282 280 279 273 270 272 273 270 267 266 264 264 264 265 264 262